Flag for U.S.A. Weather past 2 weeks in Fort Lauderdale, Florida, U.S.A.

Now
77 °F

Sunny.


Feels Like: 79 °F
Forecast: 61 / 76 °F
Wind: 7 mph from West

Location: Fort Lauderdale / Hollywood International Airport

Current Time: Dec 18, 2014 at 2:08:10 PM

Latest Report: Dec 18, 2014 at 12:53 PM


Visibility: 10 mi

Pressure: 30.11 "Hg

Humidity: 54%

Dew point: 59 °F

Location of Fort LauderdaleLocation

Historic Weather in Fort Lauderdale — Graph

°F

Fort Lauderdale temperature yesterday

Maximum temperature yesterday: 80 °F (at 1:53 PM)
Minimum temperature yesterday: 58 °F (at 3:53 AM)
Average temperature yesterday: 69 °F

Past Weeks' High & Low Weather Summary

 TemperatureHumidityPressure
High82 °F (Dec 5, 11:53 AM)97% (Dec 5, 4:53 AM)30.24 "Hg (Dec 5, 4:53 AM)
Low50 °F (Dec 10, 6:53 AM)30% (Dec 3, 1:53 PM)29.96 "Hg (Dec 9, 1:53 PM)
Average68 °F68%30.10 "Hg
* Reported Dec 3 12:53 PM — Dec 18 12:53 PM, Fort Lauderdale, Weather by CustomWeather, © 2014

Note: Actual official high and low records may vary slightly from our data, if they occured in-between our weather recording intervals... More about our weather records

Advertising

Fort Lauderdale weather history for previous 24 hours

 ConditionsComfort  
Time TempWeatherWind HumidityBarometerVisibility
12:53 PM
Dec 18
77 °FSunny.7 mph54%30.11 "Hg10 mi
11:53 AM74 °FPartly sunny.5 mph64%30.15 "Hg10 mi
10:53 AM73 °FScattered clouds.7 mph64%30.17 "Hg10 mi
9:53 AM70 °FSunny.6 mph68%30.17 "Hg10 mi
8:53 AM67 °FPassing clouds.5 mph73%30.16 "Hg10 mi
7:53 AM63 °FPassing clouds.6 mph87%30.13 "Hg10 mi
6:53 AM61 °FPassing clouds.5 mph90%30.13 "Hg10 mi
5:53 AM62 °FClear.5 mph86%30.11 "Hg10 mi
4:53 AM63 °FPassing clouds.5 mph84%30.11 "Hg10 mi
3:53 AM64 °FPassing clouds.9 mph81%30.12 "Hg10 mi
2:53 AM65 °FPartly cloudy.5 mph76%30.13 "Hg10 mi
1:53 AM65 °FPassing clouds.6 mph73%30.14 "Hg10 mi
12:53 AM65 °FPassing clouds.8 mph76%30.15 "Hg10 mi
11:53 PM
Dec 17
66 °FPassing clouds.6 mph73%30.14 "Hg10 mi
10:53 PM70 °FClear.7 mph61%30.14 "Hg10 mi
9:53 PM68 °FClear.6 mph68%30.14 "Hg10 mi
8:53 PM72 °FClear.6 mph57%30.14 "Hg10 mi
7:53 PM72 °FClear.6 mph57%30.12 "Hg10 mi
6:53 PM74 °FClear.No wind52%30.12 "Hg10 mi
5:53 PM75 °FPassing clouds.5 mph50%30.11 "Hg10 mi
4:53 PM77 °FSunny.8 mph47%30.09 "Hg10 mi
3:53 PM78 °FSunny.6 mph43%30.09 "Hg10 mi
2:53 PM80 °FSunny.7 mph42%30.09 "Hg10 mi
Weather by CustomWeather, © 2014

See weather overviewHow to use our weather pages